CW9546 Weather Reports


Display with metric or nautical units.
time (UTC)temp
F
wind
direction
speed
MPH
gust
MPH
rain 1hr
in
rain 24hr
in
rain mn
in
humidity
%
barometer
mb
20200224215050 44 14 2.0 0.0 0.00 0.00 0.00 63 1035.1
20200224214042 44 72 1.0 0.0 0.00 0.00 0.00 64 1035.2
20200224213035 44 74 2.0 0.0 0.00 0.00 0.00 63 1035.2
20200224212050 44 79 1.0 0.0 0.00 0.00 0.00 63 1035.1
20200224211042 44 92 2.0 0.0 0.00 0.00 0.00 62 1035.2
20200224210045 45 360 1.0 0.0 0.00 0.00 0.00 62 1035.2
20200224205036 44 8 1.0 0.0 0.00 0.00 0.00 62 1035.0
20200224204048 44 38 1.0 0.0 0.00 0.00 0.00 65 1035.2
20200224203044 44 38 1.0 0.0 0.00 0.00 0.00 62 1035.2
20200224202034 44 283 2.0 0.0 0.00 0.00 0.00 62 1035.1
20200224201049 44 314 1.0 0.0 0.00 0.00 0.00 66 1035.2
20200224200051 44 257 1.0 0.0 0.00 0.00 0.00 66 1035.2
20200224195042 43 221 0.0 0.0 0.00 0.00 0.00 69 1035.5
20200224194039 43 290 1.0 0.0 0.00 0.00 0.00 67 1035.6
20200224193035 44 215 1.0 0.0 0.00 0.00 0.00 67 1035.6
20200224192046 44 136 2.0 0.0 0.00 0.00 0.00 71 1035.5
20200224191037 43 266 1.0 0.0 0.00 0.00 0.00 68 1035.6
20200224190040 42 117 1.0 0.0 0.00 0.00 0.00 68 1035.5
20200224185036 42 197 1.0 0.0 0.00 0.00 0.00 71 1035.4
20200224184048 41 132 2.0 0.0 0.00 0.00 0.00 70 1035.1
20200224183040 41 110 2.0 0.0 0.00 0.00 0.00 70 1035.1
20200224182051 41 203 1.0 0.0 0.00 0.00 0.00 71 1035.4
20200224181045 41 134 1.0 0.0 0.00 0.00 0.00 71 1035.2
20200224180048 41 257 1.0 0.0 0.00 0.00 0.00 71 1035.2
20200224175043 41 128 1.0 0.0 0.00 0.00 0.00 71 1035.1
20200224174034 41 191 1.0 0.0 0.00 0.00 0.00 72 1035.1
20200224173046 41 135 2.0 0.0 0.00 0.00 0.00 72 1035.1
20200224172041 41 134 2.0 0.0 0.00 0.00 0.00 72 1035.0
20200224171037 41 122 2.0 0.0 0.00 0.00 0.00 72 1035.0
20200224170039 40 214 2.0 0.0 0.00 0.00 0.00 72 1035.0
20200224165051 40 214 2.0 0.0 0.00 0.00 0.00 73 1035.0
20200224164041 40 136 1.0 0.0 0.00 0.00 0.00 73 1034.7
20200224163035 39 136 2.0 0.0 0.00 0.00 0.00 73 1034.6
20200224162051 39 116 2.0 0.0 0.00 0.00 0.00 74 1034.5
20200224161043 39 229 2.0 0.0 0.00 0.00 0.00 74 1034.4
20200224160047 39 126 2.0 0.0 0.00 0.00 0.00 74 1034.4
20200224155037 39 136 2.0 0.0 0.00 0.00 0.00 74 1034.1
20200224154052 39 136 2.0 0.0 0.00 0.00 0.00 74 1034.0
20200224153047 39 135 3.0 0.0 0.00 0.00 0.00 74 1034.0
20200224152041 38 210 2.0 0.0 0.00 0.00 0.00 75 1034.0
20200224151039 38 167 1.0 0.0 0.00 0.00 0.00 75 1033.8
20200224150048 38 134 0.0 0.0 0.00 0.00 0.00 76 1033.8
20200224145040 38 116 1.0 0.0 0.00 0.00 0.00 75 1033.5
20200224144038 39 88 1.0 0.0 0.00 0.00 0.00 74 1033.4
20200224143047 39 269 1.0 0.0 0.00 0.00 0.00 74 1033.4
20200224142037 39 134 1.0 0.0 0.00 0.00 0.00 73 1033.4
20200224141049 39 150 1.0 0.0 0.00 0.00 0.00 72 1033.2
20200224140034 39 187 1.0 0.0 0.00 0.00 0.00 72 1033.2
20200224135050 39 212 1.0 0.0 0.00 0.00 0.00 72 1033.0
20200224134041 39 224 1.0 0.0 0.00 0.00 0.00 72 1032.9
20200224133053 39 214 2.0 0.0 0.00 0.00 0.00 72 1032.9
20200224132044 39 224 1.0 0.0 0.00 0.00 0.00 71 1032.6
20200224131036 39 276 1.0 0.0 0.00 0.00 0.00 72 1032.4
20200224130046 39 131 2.0 0.0 0.00 0.00 0.00 71 1032.4
20200224125037 39 171 2.0 0.0 0.00 0.00 0.00 72 1032.4
20200224124047 39 144 2.0 0.0 0.00 0.00 0.00 72 1032.2
20200224123042 39 226 2.0 0.0 0.00 0.00 0.00 73 1032.2
20200224122033 39 148 3.0 0.0 0.00 0.00 0.00 73 1031.9
20200224121033 39 243 3.0 0.0 0.00 0.00 0.00 73 1031.6
20200224120038 39 188 2.0 0.0 0.00 0.00 0.00 73 1031.6
20200224115050 39 262 3.0 0.0 0.00 0.00 0.00 73 1031.4
20200224114041 39 255 4.0 0.0 0.00 0.00 0.00 73 1031.2
20200224113052 39 153 3.0 0.0 0.00 0.00 0.00 73 1031.2
20200224112029 39 135 4.0 0.0 0.00 0.00 0.00 73 1030.8
20200224111041 39 179 4.0 0.0 0.00 0.00 0.00 74 1030.8
20200224110040 39 200 4.0 0.0 0.00 0.00 0.00 74 1030.8
20200224105031 39 113 4.0 0.0 0.00 0.00 0.00 74 1030.5
20200224104047 40 178 5.0 0.0 0.00 0.00 0.00 74 1030.3
20200224103046 40 146 5.0 0.0 0.00 0.00 0.00 74 1030.3
20200224102038 40 141 5.0 0.0 0.00 0.00 0.00 74 1030.3
20200224101049 40 139 4.0 0.0 0.00 0.00 0.00 74 1030.3
20200224100030 40 283 4.0 0.0 0.00 0.00 0.00 74 1030.3
20200224095048 40 157 4.0 0.0 0.00 0.00 0.00 75 1030.3
20200224094043 41 200 4.0 0.0 0.00 0.00 0.00 74 1030.0
20200224093035 41 257 4.0 0.0 0.00 0.00 0.00 76 1030.0
20200224092044 40 249 3.0 0.0 0.00 0.00 0.00 77 1029.5
20200224091039 41 182 5.0 0.0 0.00 0.00 0.00 77 1029.2
20200224090027 40 216 4.0 0.0 0.00 0.00 0.00 77 1029.2
20200224085048 40 158 4.0 0.0 0.00 0.00 0.00 78 1028.9
20200224084040 40 140 4.0 0.0 0.00 0.00 0.00 78 1028.7
20200224083031 41 212 3.0 0.0 0.00 0.00 0.00 78 1028.7
20200224082046 41 241 3.0 0.0 0.00 0.00 0.00 78 1028.5
20200224081034 41 134 3.0 0.0 0.00 0.00 0.00 78 1028.2
20200224080104 41 244 3.0 0.0 0.00 0.00 0.00 78 1028.2
20200224075036 41 127 4.0 0.0 0.00 0.00 0.12 78 1027.7
20200224074047 41 131 3.0 0.0 0.00 0.00 0.12 78 1027.4
20200224073038 41 180 3.0 0.0 0.00 0.00 0.12 78 1027.4
20200224072033 41 37 3.0 0.0 0.00 0.00 0.12 78 1027.1
20200224071036 41 243 2.0 0.0 0.00 0.00 0.12 78 1026.7
20200224070041 41 333 4.0 0.0 0.00 0.00 0.12 78 1026.7
20200224065035 41 187 3.0 0.0 0.00 0.00 0.12 78 1026.2
20200224064044 41 176 5.0 0.0 0.00 0.00 0.12 77 1025.8
20200224063039 41 136 4.0 0.0 0.00 0.00 0.12 77 1025.8
20200224062040 41 291 5.0 0.0 0.00 0.00 0.12 77 1025.6
20200224061050 41 174 4.0 0.0 0.00 0.00 0.12 77 1025.3
20200224060031 41 335 4.0 0.0 0.00 0.00 0.12 77 1025.3
20200224055047 41 25 6.0 0.0 0.00 0.00 0.12 77 1025.0
20200224054038 42 235 4.0 0.0 0.00 0.00 0.12 77 1024.5
20200224053033 42 149 5.0 0.0 0.00 0.00 0.12 77 1024.6
20200224052047 42 284 3.0 0.0 0.00 0.00 0.12 77 1024.4
20200224051039 42 240 4.0 0.0 0.00 0.00 0.12 77 1024.0
20200224050042 42 135 4.0 0.0 0.00 0.00 0.12 77 1024.0
20200224045032 42 187 3.0 0.0 0.00 0.00 0.12 78 1023.8
20200224044030 42 152 3.0 0.0 0.00 0.00 0.12 77 1023.4
20200224043045 42 203 4.0 0.0 0.00 0.00 0.12 77 1023.4
20200224042040 42 257 4.0 0.0 0.00 0.00 0.12 77 1023.0
20200224041051 42 270 4.0 0.0 0.00 0.00 0.12 77 1022.5
20200224040034 42 274 4.0 0.0 0.00 0.00 0.12 77 1022.5
20200224035049 42 263 4.0 0.0 0.00 0.00 0.12 77 1021.9
20200224034042 42 314 5.0 0.0 0.00 0.00 0.12 77 1021.7
20200224033036 42 224 4.0 0.0 0.00 0.00 0.12 77 1021.7
20200224032045 42 251 4.0 0.0 0.00 0.00 0.12 77 1021.4
20200224031034 42 278 5.0 0.0 0.00 0.00 0.12 77 1020.8
20200224030040 42 172 4.0 0.0 0.00 0.00 0.12 77 1020.8
20200224025034 42 257 6.0 0.0 0.00 0.00 0.12 76 1020.7
20200224024045 42 156 6.0 0.0 0.00 0.00 0.12 76 1020.5
20200224023039 42 233 5.0 0.0 0.00 0.00 0.12 76 1020.5
20200224022050 42 148 5.0 0.0 0.00 0.00 0.12 76 1019.9
20200224021045 42 201 6.0 0.0 0.00 0.00 0.12 76 1019.7
20200224020048 42 193 5.0 0.0 0.00 0.00 0.12 75 1019.7
20200224015040 42 105 7.0 0.0 0.00 0.00 0.12 74 1019.2
20200224014052 43 233 6.0 0.0 0.00 0.00 0.12 74 1019.1
20200224013044 43 123 4.0 0.0 0.00 0.00 0.12 74 1019.1
20200224012043 43 247 6.0 0.0 0.00 0.00 0.12 73 1018.8
20200224011034 44 179 6.0 0.0 0.00 0.00 0.12 73 1018.6
20200224010038 44 264 5.0 0.0 0.00 0.00 0.12 73 1018.6
20200224005050 44 246 5.0 0.0 0.00 0.00 0.12 73 1018.4
20200224004040 44 236 6.0 0.0 0.00 0.00 0.12 72 1018.3
20200224003039 45 135 5.0 0.0 0.00 0.00 0.12 72 1018.3
20200224002049 45 50 6.0 0.0 0.00 0.00 0.12 72 1018.1
20200224001043 45 141 6.0 0.0 0.00 0.00 0.12 72 1017.7
20200224000044 45 247 7.0 0.0 0.00 0.00 0.12 72 1017.7
20200223235039 45 185 6.0 0.0 0.00 0.00 0.12 72 1017.2
20200223234049 45 154 5.0 0.0 0.00 0.00 0.12 72 1016.9
20200223233042 46 139 5.0 0.0 0.00 0.00 0.12 73 1016.9
20200223232033 46 183 5.0 0.0 0.00 0.00 0.12 72 1016.4
20200223231046 46 219 6.0 0.0 0.00 0.00 0.12 72 1016.2
20200223230052 46 168 7.0 0.0 0.00 0.00 0.12 72 1016.2
20200223225042 46 212 6.0 0.0 0.00 0.00 0.12 71 1016.0
20200223224040 46 281 5.0 0.0 0.00 0.00 0.12 72 1015.7
20200223223035 46 189 7.0 0.0 0.00 0.00 0.12 72 1015.7
20200223222046 46 176 7.0 0.0 0.00 0.00 0.12 71 1015.7
20200223221038 46 124 5.0 0.0 0.00 0.00 0.12 74 1015.2
20200223220040 46 296 5.0 0.0 0.00 0.00 0.12 74 1015.2